Location: Newark
(45.7500°N, 8.6667°E)
Time: 18:37:02
(UTC+00:00)

ISS - Visible Passes

Search period start: 25 August 2019 00:00
Search period end: 04 September 2019 00:00
Orbit: 410 x 421 km, 51.6° (Epoch: 26 August)

Date Brightness Start Highest point End Pass type
(mag) Time Alt. Az. Time Alt. Az. Time Alt. Az.
28 Aug -1.8 03:36:05 10° SSW 03:38:46 23° SE 03:41:28 10° E visible
29 Aug -1.3 02:49:12 13° SSE 02:50:09 14° SE 02:52:00 10° E visible
30 Aug -3.3 03:35:22 18° SW 03:37:38 54° SE 03:40:55 10° ENE visible
31 Aug -2.7 02:48:36 32° SSE 02:48:53 33° SE 02:51:56 10° ENE visible
01 Sep -1.1 02:01:45 15° E 02:01:45 15° E 02:02:45 10° E visible
01 Sep -3.7 03:34:38 22° WSW 03:36:37 69° NNW 03:39:58 10° ENE visible
02 Sep -3.9 02:47:44 80° SSE 02:47:44 80° SSE 02:51:05 10° ENE visible
03 Sep -1.4 02:00:48 22° ENE 02:00:48 22° ENE 02:02:10 10° ENE visible
03 Sep -2.8 03:33:40 19° WNW 03:35:43 39° NNW 03:38:54 10° NE visible
